FW6829 Weather Reports


Display with metric or nautical units.
time (UTC)temp
F
wind
direction
speed
MPH
gust
MPH
rain 1hr
in
rain 24hr
in
rain mn
in
humidity
%
barometer
mb
20210803213427 42 317 0.0 13.0 0.00 0.00 0.00 85 1104.9
20210803212927 43 317 0.0 13.0 0.00 0.00 0.00 86 1105.7
20210803212427 43 315 0.0 13.0 0.00 0.00 0.00 84 1106.8
20210803211927 43 318 0.0 13.0 0.00 0.00 0.00 84 1112.2
20210803211427 43 318 0.0 13.0 0.00 0.00 0.00 83 1115.8
20210803210926 42 318 0.0 13.0 0.00 0.00 0.00 82 1122.6
20210803210427 42 329 0.0 13.0 0.00 0.00 0.00 83 1135.3
20210803205927 42 327 0.0 13.0 0.00 0.00 0.00 83 1133.1
20210803205427 42 328 1.0 13.0 0.00 0.00 0.00 80 1133.2
20210803204927 43 328 0.0 13.0 0.00 0.00 0.00 80 1136.7
20210803204427 43 330 0.0 13.0 0.00 0.00 0.00 78 1138.1
20210803203927 43 330 0.0 13.0 0.00 0.00 0.00 75 1136.1
20210803203427 44 328 0.0 13.0 0.00 0.00 0.00 75 1129.3
20210803202927 44 327 0.0 13.0 0.00 0.00 0.00 74 1120.6
20210803202427 44 322 0.0 13.0 0.00 0.00 0.00 75 1112.8
20210803201927 44 319 0.0 13.0 0.00 0.00 0.00 74 1109.0
20210803201427 45 316 0.0 13.0 0.00 0.00 0.00 74 1110.5
20210803200927 45 319 1.0 13.0 0.00 0.00 0.00 73 1120.0
20210803200427 45 324 0.0 13.0 0.00 0.00 0.00 71 1130.1
20210803195927 46 325 0.0 13.0 0.00 0.00 0.00 70 1141.1
20210803195427 46 333 0.0 13.0 0.00 0.00 0.00 70 1151.5
20210803194927 46 335 0.0 13.0 0.00 0.00 0.00 72 1153.4
20210803194426 46 337 0.0 13.0 0.00 0.00 0.00 70 1148.3
20210803193926 47 321 1.0 13.0 0.00 0.00 0.00 68 1135.1
20210803193426 47 328 0.0 13.0 0.00 0.00 0.00 67 1148.0
20210803192926 48 338 1.0 13.0 0.00 0.00 0.00 65 1154.6
20210803192426 48 336 0.0 13.0 0.00 0.00 0.00 64 1148.0
20210803191926 49 335 0.0 13.0 0.00 0.00 0.00 64 1139.3
20210803191426 49 333 1.0 13.0 0.00 0.00 0.00 60 1129.6
20210803190926 49 328 2.0 13.0 0.00 0.00 0.00 60 1117.1
20210803190426 50 320 1.0 13.0 0.00 0.00 0.00 61 1108.2
20210803185926 50 320 1.0 13.0 0.00 0.00 0.00 59 1110.8
20210803185426 51 318 2.0 13.0 0.00 0.00 0.00 57 1114.9
20210803184926 51 320 2.0 13.0 0.00 0.00 0.00 56 1123.5
20210803184426 51 330 2.0 13.0 0.00 0.00 0.00 54 1131.4
20210803183926 51 328 1.0 13.0 0.00 0.00 0.00 54 1124.0
20210803183426 51 329 2.0 13.0 0.00 0.00 0.00 54 1118.0
20210803182926 51 326 1.0 13.0 0.00 0.00 0.00 55 1100.6
20210803182426 52 325 2.0 13.0 0.00 0.00 0.00 54 1081.3
20210803181926 52 295 1.0 13.0 0.00 0.00 0.00 54 1059.3
20210803181426 53 317 2.0 13.0 0.00 0.00 0.00 51 1092.8
20210803180926 53 334 0.0 13.0 0.00 0.00 0.00 52 1063.1
20210803180426 53 355 1.0 13.0 0.00 0.00 0.00 51 965.3
20210803175926 54 39 0.0 13.0 0.00 0.00 0.00 53 723.3
20210803175426 54 334 1.0 13.0 0.00 0.00 0.00 48 1049.6
20210803174926 54 341 2.0 13.0 0.00 0.00 0.00 48 946.8
20210803174426 54 350 2.0 13.0 0.00 0.00 0.00 48 822.3
20210803173926 54 332 4.0 13.0 0.00 0.00 0.00 47 972.6
20210803173426 55 19 2.0 13.0 0.00 0.00 0.00 47 854.5
20210803172926 55 324 2.0 13.0 0.00 0.00 0.00 48 953.2
20210803172426 55 355 4.0 13.0 0.00 0.00 0.00 45 1033.5
20210803171926 55 345 2.0 13.0 0.00 0.00 0.00 46 994.7
20210803171426 56 276 4.0 13.0 0.00 0.00 0.00 44 989.7
20210803170926 56 310 4.0 13.0 0.00 0.00 0.00 45 1008.3
20210803170426 56 303 2.0 13.0 0.00 0.00 0.00 46 1007.0
20210803165926 56 297 3.0 13.0 0.00 0.00 0.00 46 963.0
20210803165426 56 4 3.0 13.0 0.00 0.00 0.00 45 1005.3
20210803164926 56 0 4.0 13.0 0.00 0.00 0.00 44 1069.3
20210803164426 56 332 3.0 13.0 0.00 0.00 0.00 45 1099.4
20210803163926 55 305 3.0 13.0 0.00 0.00 0.00 45 1076.4
20210803163426 56 295 3.0 13.0 0.00 0.00 0.00 46 1085.8
20210803162926 56 331 4.0 13.0 0.00 0.00 0.00 45 1118.2
20210803162426 56 338 6.0 13.0 0.00 0.00 0.00 46 1087.5
20210803161926 56 305 3.0 13.0 0.00 0.00 0.00 46 1022.8
20210803161426 55 358 3.0 13.0 0.00 0.00 0.00 48 1121.8
20210803160926 55 346 3.0 13.0 0.00 0.00 0.00 47 1099.0
20210803160426 56 351 3.0 13.0 0.00 0.00 0.00 46 1036.6
20210803155926 55 296 2.0 13.0 0.00 0.00 0.00 47 1043.1
20210803155426 55 296 3.0 13.0 0.00 0.00 0.00 46 1041.0
20210803154926 56 305 3.0 13.0 0.00 0.00 0.00 47 1072.8
20210803154426 56 284 2.0 13.0 0.00 0.00 0.00 44 1053.0
20210803153926 56 320 4.0 13.0 0.00 0.00 0.00 45 1098.2
20210803153426 56 321 3.0 13.0 0.00 0.00 0.00 45 1047.9
20210803152926 56 314 6.0 13.0 0.00 0.00 0.00 46 1026.7
20210803152426 57 327 7.0 11.0 0.00 0.00 0.00 45 955.0
20210803151925 57 271 2.0 12.0 0.00 0.00 0.00 46 782.0
20210803151425 56 17 3.0 12.0 0.00 0.00 0.00 46 826.5
20210803150925 56 16 2.0 12.0 0.00 0.00 0.00 47 1049.7
20210803150425 55 315 0.0 12.0 0.00 0.00 0.00 50 1091.1
20210803145925 54 329 2.0 12.0 0.00 0.00 0.00 49 1071.5
20210803145425 54 1 4.0 12.0 0.00 0.00 0.00 50 1052.4
20210803144925 56 6 4.0 12.0 0.00 0.00 0.00 48 983.2
20210803144425 56 331 3.0 12.0 0.00 0.00 0.00 49 886.2
20210803143925 55 345 5.0 12.0 0.00 0.00 0.00 49 710.1
20210803143425 54 359 5.0 12.0 0.00 0.00 0.00 47 880.3
20210803142925 54 331 2.0 12.0 0.00 0.00 0.00 50 994.5
20210803142425 54 338 1.0 12.0 0.00 0.00 0.00 49 1123.2
20210803141925 54 358 6.0 12.0 0.00 0.00 0.00 48 1083.2
20210803141425 55 341 4.0 12.0 0.00 0.00 0.00 48 1102.4
20210803140925 54 339 2.0 12.0 0.00 0.00 0.00 49 1102.9
20210803140425 53 304 3.0 12.0 0.00 0.00 0.00 49 1106.3
20210803135925 53 313 3.0 12.0 0.00 0.00 0.00 50 1115.5
20210803135425 53 316 3.0 12.0 0.00 0.00 0.00 50 1138.9
20210803134925 54 357 6.0 12.0 0.00 0.00 0.00 49 1165.5
20210803134425 55 356 1.0 11.0 0.00 0.00 0.00 49 1110.1
20210803133925 54 5 3.0 11.0 0.00 0.00 0.00 50 1149.2
20210803133425 53 354 3.0 11.0 0.00 0.00 0.00 52 1215.4
20210803132925 54 359 5.0 11.0 0.00 0.00 0.00 49 1218.2
20210803132425 54 359 3.0 11.0 0.00 0.00 0.00 49 1224.0
20210803131925 54 0 5.0 11.0 0.00 0.00 0.00 48 1219.3
20210803131425 54 359 4.0 12.0 0.00 0.00 0.00 49 1213.4
20210803130925 54 355 4.0 12.0 0.00 0.00 0.00 51 1205.2
20210803130425 54 350 6.0 12.0 0.00 0.00 0.00 50 1198.3
20210803125925 54 352 3.0 12.0 0.00 0.00 0.00 49 1186.4
20210803125425 53 358 4.0 12.0 0.00 0.00 0.00 49 1174.9
20210803124925 53 353 3.0 12.0 0.00 0.00 0.00 50 1128.2
20210803124425 53 351 4.0 12.0 0.00 0.00 0.00 52 1119.3
20210803123925 53 357 4.0 12.0 0.00 0.00 0.00 54 1125.8
20210803123425 53 311 4.0 12.0 0.00 0.00 0.00 51 1077.5
20210803122925 53 322 5.0 12.0 0.00 0.00 0.00 51 1066.1
20210803122425 53 292 6.0 12.0 0.00 0.00 0.00 51 1065.6
20210803121925 53 305 3.0 12.0 0.00 0.00 0.00 52 1100.5
20210803121425 53 349 4.0 12.0 0.00 0.00 0.00 53 1144.8
20210803120925 52 344 3.0 12.0 0.00 0.00 0.00 53 1100.9
20210803120425 51 332 5.0 12.0 0.00 0.00 0.00 55 1037.4
20210803115925 51 328 5.0 12.0 0.00 0.00 0.00 54 1046.7
20210803115425 52 342 5.0 12.0 0.00 0.00 0.00 53 1009.5
20210803114925 51 337 4.0 12.0 0.00 0.00 0.00 55 963.4
20210803114425 52 336 5.0 12.0 0.00 0.00 0.00 55 1034.1
20210803113925 51 335 4.0 12.0 0.00 0.00 0.00 55 1049.9
20210803113425 51 301 5.0 12.0 0.00 0.00 0.00 55 1025.1
20210803112925 51 348 4.0 12.0 0.00 0.00 0.00 57 986.6
20210803112425 51 358 8.0 12.0 0.00 0.00 0.00 57 893.0
20210803111925 51 347 5.0 12.0 0.00 0.00 0.00 56 981.1
20210803111425 51 340 4.0 12.0 0.00 0.00 0.00 56 979.7
20210803110925 51 318 4.0 12.0 0.00 0.00 0.00 57 998.6
20210803110425 52 312 6.0 12.0 0.00 0.00 0.00 55 910.3
20210803105925 51 341 5.0 12.0 0.00 0.00 0.00 54 969.8
20210803105425 51 338 6.0 12.0 0.00 0.00 0.00 56 837.0
20210803104925 51 32 2.0 12.0 0.00 0.00 0.00 57 664.5
20210803104425 51 333 5.0 12.0 0.00 0.00 0.00 55 1001.5
20210803103925 51 342 5.0 11.0 0.00 0.00 0.00 57 1042.2
20210803103425 50 330 5.0 14.0 0.00 0.00 0.00 58 1057.1
20210803102925 50 314 8.0 14.0 0.00 0.00 0.00 56 1062.3
20210803102425 51 334 6.0 14.0 0.00 0.00 0.00 56 1025.0
20210803101925 51 345 6.0 11.0 0.00 0.00 0.00 56 1073.5
20210803101425 50 300 6.0 11.0 0.00 0.00 0.00 60 1085.3
20210803100925 49 347 3.0 13.0 0.00 0.00 0.00 61 1067.7
20210803100425 50 295 4.0 13.0 0.00 0.00 0.00 61 970.0
20210803095925 50 338 6.0 13.0 0.00 0.00 0.00 60 970.8
20210803095425 50 334 6.0 13.0 0.00 0.00 0.00 60 1002.6
20210803094925 50 311 5.0 13.0 0.00 0.00 0.00 61 1033.6
20210803094425 50 293 4.0 13.0 0.00 0.00 0.00 60 967.1
20210803093925 50 316 2.0 13.0 0.00 0.00 0.00 60 888.1
20210803093425 49 358 5.0 13.0 0.00 0.00 0.00 59 962.6
20210803092925 50 327 4.0 13.0 0.00 0.00 0.00 59 1067.9
20210803092425 50 320 5.0 13.0 0.00 0.00 0.00 61 1038.4
20210803091925 50 291 4.0 12.0 0.00 0.00 0.00 62 1015.5
20210803091425 49 329 4.0 12.0 0.00 0.00 0.00 62 1000.9
20210803090925 49 350 7.0 11.0 0.00 0.00 0.00 60 1060.6
20210803090425 49 329 2.0 12.0 0.00 0.00 0.00 61 1077.9
20210803085925 49 297 2.0 12.0 0.00 0.00 0.00 62 1031.3
20210803085425 49 320 5.0 12.0 0.00 0.00 0.00 61 1024.8
20210803084925 49 337 3.0 12.0 0.00 0.00 0.00 63 958.7
20210803084426 49 346 4.0 12.0 0.00 0.00 0.00 62 889.4
20210803083925 49 326 4.0 14.0 0.00 0.00 0.00 62 1009.6
20210803083425 49 350 6.0 14.0 0.00 0.00 0.00 62 984.6
20210803082925 49 345 7.0 12.0 0.00 0.00 0.00 62 993.6
20210803082425 49 329 5.0 12.0 0.00 0.00 0.00 66 974.3
20210803081925 48 327 3.0 12.0 0.00 0.00 0.00 68 982.4
20210803081426 48 305 4.0 12.0 0.00 0.00 0.00 67 886.2
20210803080925 48 357 4.0 12.0 0.00 0.00 0.00 69 836.9
20210803080425 49 218 3.0 12.0 0.00 0.00 0.00 68 954.4
20210803075926 48 261 1.0 12.0 0.00 0.00 0.00 70 1026.8
20210803075425 47 342 4.0 12.0 0.00 0.00 0.00 72 1047.1
20210803074925 47 342 3.0 12.0 0.00 0.00 0.00 71 972.4
20210803074426 47 1 2.0 12.0 0.00 0.00 0.00 71 1160.3
20210803073926 47 343 3.0 12.0 0.00 0.00 0.00 72 1085.6
20210803073426 47 269 3.0 12.0 0.00 0.00 0.00 73 1001.7
20210803072925 47 280 5.0 12.0 0.00 0.00 0.00 70 1042.1
20210803072426 48 0 5.0 12.0 0.00 0.00 0.00 70 1095.2
20210803071925 48 281 4.0 12.0 0.00 0.00 0.00 69 1010.7
20210803071425 48 283 6.0 11.0 0.00 0.00 0.00 68 1032.0
20210803070926 48 321 5.0 11.0 0.00 0.00 0.00 67 1023.9
20210803070425 47 306 3.0 11.0 0.00 0.00 0.00 70 1019.7
20210803065926 47 345 5.0 11.0 0.00 0.00 0.00 69 1040.9
20210803065426 47 328 4.0 11.0 0.00 0.00 0.00 71 995.6
20210803064925 46 351 2.0 11.0 0.00 0.00 0.00 74 1128.5
20210803064426 46 353 4.0 11.0 0.00 0.00 0.00 76 1171.8
20210803063925 46 358 3.0 11.0 0.00 0.00 0.00 77 1145.7
20210803063426 46 298 4.0 11.0 0.00 0.00 0.00 76 1090.2
20210803062925 46 326 4.0 11.0 0.00 0.00 0.00 75 1094.5
20210803062426 47 334 3.0 11.0 0.00 0.00 0.00 75 1053.5
20210803061926 46 301 3.0 11.0 0.00 0.00 0.00 74 1053.0
20210803061425 46 302 4.0 11.0 0.00 0.00 0.00 76 1045.1
20210803060924 46 278 5.0 11.0 0.00 0.00 0.00 77 1037.7
20210803060425 46 288 5.0 11.0 0.00 0.00 0.00 77 1085.5
20210803055925 46 322 3.0 11.0 0.00 0.00 0.00 77 1125.7
20210803055425 46 336 4.0 11.0 0.00 0.00 0.00 79 1137.7
20210803054925 45 353 4.0 11.0 0.00 0.00 0.00 80 1115.6
20210803054425 45 303 4.0 11.0 0.00 0.00 0.00 79 1083.8
20210803053925 45 318 4.0 11.0 0.00 0.00 0.00 80 1102.1
20210803053424 45 309 5.0 11.0 0.00 0.00 0.00 79 1104.4
20210803052925 45 335 3.0 11.0 0.00 0.00 0.00 80 1128.3
20210803052425 45 327 5.0 11.0 0.00 0.00 0.00 78 1114.3
20210803051925 46 342 4.0 11.0 0.00 0.00 0.00 79 1092.4
20210803051425 46 319 5.0 11.0 0.00 0.00 0.00 80 1059.4
20210803050925 46 317 4.0 11.0 0.00 0.00 0.00 79 1012.8
20210803050425 46 326 6.0 11.0 0.00 0.00 0.00 78 928.3
20210803045925 46 295 5.0 11.0 0.00 0.00 0.00 79 766.1
20210803045425 44 7 2.0 11.0 0.00 0.00 0.00 83 559.8
20210803044925 43 342 0.0 11.0 0.00 0.00 0.00 85 736.1
20210803044425 42 36 1.0 11.0 0.00 0.00 0.00 85 472.3
20210803043925 43 18 2.0 11.0 0.00 0.00 0.00 83 682.8
20210803043425 43 326 3.0 11.0 0.00 0.00 0.00 83 1004.6
20210803042925 43 331 3.0 11.0 0.00 0.00 0.00 83 1060.2
20210803042425 44 2 2.0 11.0 0.00 0.00 0.00 81 1165.2
20210803041925 44 346 3.0 11.0 0.00 0.00 0.00 81 1131.0
20210803041425 43 312 5.0 11.0 0.00 0.00 0.00 83 1105.2
20210803040925 42 315 3.0 11.0 0.00 0.00 0.00 86 1108.6
20210803040425 40 329 1.0 11.0 0.00 0.00 0.00 87 1146.4
20210803035925 40 344 1.0 11.0 0.00 0.00 0.00 89 1140.3
20210803035425 40 347 2.0 11.0 0.00 0.00 0.00 90 1131.4
20210803034925 40 343 3.0 11.0 0.00 0.00 0.00 90 1120.6
20210803034425 40 307 2.0 11.0 0.00 0.00 0.00 89 1087.1
20210803033925 40 320 4.0 11.0 0.00 0.00 0.00 89 1111.7
20210803033425 40 309 4.0 11.0 0.00 0.00 0.00 89 1112.1
20210803032925 40 314 1.0 11.0 0.00 0.00 0.00 88 1119.5
20210803032425 40 344 2.0 11.0 0.00 0.00 0.00 87 1139.4
20210803031925 40 332 2.0 11.0 0.00 0.00 0.00 86 1107.4
20210803031425 41 349 2.0 11.0 0.00 0.00 0.00 84 1041.3
20210803030925 42 314 3.0 11.0 0.00 0.00 0.00 83 926.4
20210803030425 42 338 4.0 11.0 0.00 0.00 0.00 80 1011.4
20210803025925 44 295 4.0 11.0 0.00 0.00 0.00 78 938.9
20210803025425 43 289 6.0 11.0 0.00 0.00 0.00 79 863.0
20210803024925 42 275 6.0 11.0 0.00 0.00 0.00 81 735.5
20210803024425 43 52 1.0 12.0 0.00 0.00 0.00 80 788.6
20210803023925 43 304 3.0 12.0 0.00 0.00 0.00 80 948.9
20210803023425 43 311 5.0 12.0 0.00 0.00 0.00 79 906.5
20210803022925 43 285 6.0 11.0 0.00 0.00 0.00 81 906.7
20210803022425 41 272 2.0 11.0 0.00 0.00 0.00 84 832.0
20210803021925 42 263 2.0 11.0 0.00 0.00 0.00 82 690.2
20210803021425 42 25 1.0 11.0 0.00 0.00 0.00 80 608.3
20210803020925 43 287 5.0 11.0 0.00 0.00 0.00 80 967.3
20210803020425 43 273 7.0 11.0 0.00 0.00 0.00 81 929.5
20210803015925 42 296 4.0 14.0 0.00 0.00 0.00 82 858.5
20210803015425 42 303 4.0 14.0 0.00 0.00 0.00 83 873.0
20210803014925 42 278 6.0 14.0 0.00 0.00 0.00 83 1018.6
20210803014425 41 292 5.0 14.0 0.00 0.00 0.00 85 1042.6
20210803013925 41 332 2.0 14.0 0.00 0.00 0.00 85 1055.5
20210803013425 42 298 3.0 14.0 0.00 0.00 0.00 84 1034.2
20210803012925 42 320 2.0 14.0 0.00 0.00 0.00 83 1014.1
20210803012425 43 297 4.0 14.0 0.00 0.00 0.00 81 1060.1
20210803011925 43 347 4.0 14.0 0.00 0.00 0.00 79 1017.7
20210803011425 44 334 3.0 14.0 0.00 0.00 0.00 77 1062.7
20210803010925 44 291 5.0 11.0 0.00 0.00 0.00 78 1061.8
20210803010425 44 304 4.0 11.0 0.00 0.00 0.00 78 1053.4
20210803005925 44 295 4.0 11.0 0.00 0.00 0.00 77 1045.6
20210803005425 44 293 5.0 11.0 0.00 0.00 0.00 77 1044.7
20210803004925 44 299 4.0 11.0 0.00 0.00 0.00 77 1045.9
20210803004425 44 301 4.0 11.0 0.00 0.00 0.00 77 1035.9
20210803003925 44 299 4.0 11.0 0.00 0.00 0.00 76 1018.9
20210803003425 44 286 7.0 11.0 0.00 0.00 0.00 77 993.5
20210803002925 44 283 9.0 11.0 0.00 0.00 0.00 77 975.6
20210803002425 44 279 6.0 11.0 0.00 0.00 0.00 78 956.0
20210803001924 44 279 6.0 11.0 0.00 0.00 0.00 79 936.4
20210803001424 43 302 3.0 13.0 0.00 0.00 0.00 80 880.5
20210803000924 43 310 3.0 13.0 0.00 0.00 0.00 81 713.1
20210803000424 43 343 1.0 13.0 0.00 0.00 0.00 81 879.5
20210802235924 43 319 0.0 13.0 0.00 0.00 0.00 80 787.7
20210802235424 43 14 3.0 13.0 0.00 0.00 0.00 80 779.9
20210802234924 43 295 2.0 13.0 0.00 0.00 0.00 80 1026.9
20210802234424 43 323 2.0 13.0 0.00 0.00 0.00 80 1060.6
20210802233924 44 338 3.0 13.0 0.00 0.00 0.00 79 1124.0
20210802233424 44 315 1.0 13.0 0.00 0.00 0.00 79 1110.8
20210802232924 44 330 2.0 13.0 0.00 0.00 0.00 79 1121.6
20210802232424 44 309 3.0 13.0 0.00 0.00 0.00 79 1061.0
20210802231924 44 308 3.0 13.0 0.00 0.00 0.00 79 1058.7
20210802231424 44 298 4.0 13.0 0.00 0.00 0.00 79 1055.1
20210802230924 44 294 3.0 13.0 0.00 0.00 0.00 78 1070.3
20210802230424 44 299 3.0 13.0 0.00 0.00 0.00 77 1088.5
20210802225924 44 337 2.0 13.0 0.00 0.00 0.00 77 1105.9
20210802225424 44 304 2.0 13.0 0.00 0.00 0.00 76 1104.4
20210802224924 44 326 5.0 13.0 0.00 0.00 0.00 75 1119.4
20210802224424 45 322 5.0 13.0 0.00 0.00 0.00 74 1119.7
20210802223924 45 331 5.0 13.0 0.00 0.00 0.00 74 1114.4
20210802223424 45 330 4.0 13.0 0.00 0.00 0.00 75 1111.6
20210802222924 45 338 5.0 13.0 0.00 0.00 0.00 75 1092.1
20210802222424 45 330 5.0 13.0 0.00 0.00 0.00 75 1112.9
20210802221924 45 343 5.0 13.0 0.00 0.00 0.00 75 1103.5
20210802221424 45 344 5.0 13.0 0.00 0.00 0.00 75 1067.6
20210802220924 45 346 5.0 13.0 0.00 0.00 0.00 74 1028.3
20210802220424 45 335 4.0 13.0 0.00 0.00 0.00 74 1064.0
20210802215924 45 338 6.0 13.0 0.00 0.00 0.00 74 1041.0
20210802215424 45 351 4.0 13.0 0.00 0.00 0.00 74 1025.4
20210802214924 45 350 3.0 13.0 0.00 0.00 0.00 73 950.4
20210802214424 45 350 5.0 13.0 0.00 0.00 0.00 73 1022.3
20210802213924 45 355 4.0 13.0 0.00 0.00 0.00 74 1034.1